[[{"header":{"parameterUnit":"m.s-1","parameterCategory":1,"la1":30.2991,"la2":30.254,"lo1":-89.0895,"lo2":-89.0444,"dy":0.0017,"dx":0.0017,"nx":28,"ny":28,"refTime":"2024-02-16T03:00:00:Z","depth":0,"parameterNumber":2,"parameterNumberName":"U-component_of_WINDS"},"data":[0,0,0,0,0,0,0,0,0,0,0,0,0,0,0,0,0,0,0,0,0,0,0,0,0,0,0,0,0,0,0,0,0,0,0,0,0,0,0,0,0,0,0,0,0,0,0,0,0,0,0,0,0,0,0,0,0,0,-0.7467,-0.7467,0,-0.7469,-0.7469,-0.7469,-0.744,-0.744,-0.7439,-0.7438,-0.744,-0.7441,-0.7442,0,0,0,0,0,0,0,0,0,0,0,0,0,-0.7441,-0.7442,-0.7467,-0.7467,-0.7468,-0.7469,-0.7469,-0.7469,-0.744,-0.7439,-0.7439,-0.7438,-0.744,-0.7441,-0.7442,0,0,0,0,0,0,0,0,0,0,0,0,0,-0.7449,-0.7442,-0.7467,-0.7453,-0.7452,-0.7469,-0.7469,-0.7469,-0.7441,-0.7439,-0.7438,-0.7437,-0.744,-0.7441,-0.7442,-0.7472,0,0,-0.7445,-0.7446,0,0,0,0,0,0,0,0,-0.7449,-0.745,-0.7455,-0.7454,-0.7453,-0.7453,-0.7461,-0.747,-0.7441,-0.7445,-0.7438,-0.7437,-0.7445,-0.7446,-0.7449,-0.7473,-0.7473,-0.7446,-0.7446,-0.7447,-0.7447,0,0,0,0,0,0,0,-0.7448,-0.745,-0.7468,-0.7456,-0.7454,-0.7448,-0.7447,-0.7462,-0.7452,-0.7445,-0.7442,-0.7443,-0.7445,-0.7448,-0.7449,-0.7473,-0.7446,-0.7447,-0.7447,-0.7448,-0.7523,-0.7524,0,0,0,0,0,0,-0.7449,-0.7449,-0.7468,-0.7468,-0.7448,-0.7449,-0.7449,-0.7454,-0.7452,-0.745,-0.7444,-0.7442,-0.7446,-0.7447,-0.7449,-0.7485,-0.7447,-0.7448,-0.7449,-0.7522,-0.7523,-0.7525,0,0,0,0,0,0,-0.7449,-0.7451,-0.7468,-0.7458,-0.746,-0.7451,-0.7457,-0.7455,-0.7458,-0.7451,-0.7449,-0.7449,-0.7446,-0.7447,-0.7467,-0.7484,-0.7448,-0.7449,-0.752,-0.7522,-0.7524,-0.7556,0,0,0,0,0,0,-0.7448,-0.7451,-0.7462,-0.7459,-0.7461,-0.7486,-0.7458,-0.7456,-0.746,-0.7457,-0.7455,-0.7454,-0.7445,-0.7465,-0.7468,-0.7485,-0.745,-0.7519,-0.7521,-0.7523,-0.7554,-0.7559,-0.7564,0,0,0,0,0,-0.7447,-0.7471,-0.7463,-0.7465,-0.7474,-0.7487,-0.7488,-0.7476,-0.7462,-0.7473,-0.7469,-0.7454,-0.7483,-0.7468,-0.7471,-0.7488,-0.7517,-0.752,-0.7523,-0.7551,-0.7558,-0.7564,0,0,0,0,0,0,-0.7476,-0.747,-0.7461,-0.7484,-0.7486,-0.7482,-0.7495,-0.7484,-0.749,-0.7487,-0.7473,-0.7473,-0.7495,-0.7494,-0.7478,-0.7519,-0.7497,-0.7501,-0.7518,-0.7524,-0.7529,-0.7528,-0.7451,0,0,0,0,0,-0.7485,-0.7496,-0.749,-0.7511,-0.7513,-0.7504,-0.7509,-0.7501,-0.7502,-0.7503,-0.75,-0.7502,-0.7512,-0.7518,-0.7527,-0.7554,-0.7554,-0.7568,-0.7573,-0.7578,-0.758,-0.7595,-0.7602,-0.7534,-0.7534,-0.7534,0,0,-0.7504,-0.7502,-0.7509,-0.7517,-0.7517,-0.7529,-0.7505,-0.7518,-0.7527,-0.7505,-0.7523,-0.7522,-0.7524,-0.7548,-0.7558,-0.7547,-0.7599,-0.7581,-0.7585,-0.7585,-0.7599,-0.7606,-0.7611,-0.7536,-0.7536,-0.7536,0,0,-0.7543,-0.7543,-0.756,-0.7562,-0.7564,-0.7558,-0.7563,-0.7561,-0.7559,-0.7577,-0.7562,-0.7573,-0.7589,-0.7591,-0.7595,-0.7638,-0.7625,-0.7642,-0.7667,-0.7682,-0.7688,-0.7692,-0.7708,-0.7713,-0.7645,-0.7645,-0.7645,0,-0.7566,-0.7582,-0.7571,-0.7586,-0.759,-0.7572,-0.759,-0.7592,-0.7597,-0.76,-0.7588,-0.761,-0.761,-0.7634,-0.7645,-0.7649,-0.7654,-0.764,-0.7688,-0.7692,-0.7697,-0.7711,-0.7717,-0.7647,-0.7647,-0.7646,-0.7646,0,-0.761,-0.7622,-0.7636,-0.7641,-0.7647,-0.7664,-0.7656,-0.7664,-0.7656,-0.7652,-0.7672,-0.7672,-0.768,-0.7686,-0.7678,-0.771,-0.7703,-0.769,-0.7668,-0.7705,-0.7718,-0.7724,-0.765,-0.7649,-0.7648,-0.7648,0,0,-0.7664,-0.7665,-0.767,-0.7673,-0.7675,-0.7684,-0.7701,-0.7709,-0.7716,-0.7721,-0.7734,-0.775,-0.7738,-0.7742,-0.7735,-0.7748,-0.7783,-0.7733,-0.7733,-0.7742,-0.7818,-0.7827,-0.7834,-0.7775,-0.7776,-0.7777,-0.7818,0,-0.7702,-0.7729,-0.7721,-0.7749,-0.776,-0.7745,-0.7759,-0.7762,-0.776,-0.777,-0.7768,-0.7779,-0.7763,-0.7765,-0.7778,-0.7776,-0.7798,-0.7773,-0.7787,-0.7788,-0.7785,-0.7841,-0.785,-0.7888,-0.7823,-0.7824,-0.7825,0,-0.7749,-0.7756,-0.7784,-0.7786,-0.779,-0.7803,-0.7811,-0.7821,-0.7825,-0.7823,-0.7828,-0.7819,-0.7836,-0.7816,-0.784,-0.7823,-0.7829,-0.7829,-0.7831,-0.783,-0.7807,-0.784,-0.79,-0.7905,-0.7833,-0.7832,-0.7832,0,-0.7785,-0.7802,-0.7821,-0.7824,-0.7826,-0.7836,-0.7837,-0.784,-0.7846,-0.7854,-0.7858,-0.7868,-0.7873,-0.7881,-0.7875,-0.7861,-0.79,-0.7879,-0.7898,-0.7898,-0.7905,-0.7904,-0.7965,-0.7911,-0.7911,-0.7911,-0.7911,0,-0.7827,-0.7845,-0.7837,-0.7849,-0.7869,-0.7861,-0.7882,-0.7882,-0.7885,-0.7897,-0.7885,-0.7897,-0.7889,-0.79,-0.7896,-0.7917,-0.7919,-0.7918,-0.7916,-0.7918,-0.7918,-0.792,-0.7917,-0.7913,-0.7912,-0.7912,-0.7912,0,-0.7869,-0.7865,-0.7885,-0.7886,-0.7887,-0.7902,-0.7903,-0.7915,-0.7913,-0.7929,-0.7932,-0.7929,-0.7942,-0.7937,-0.7951,-0.7948,-0.7974,-0.797,-0.7973,-0.7971,-0.799,-0.7988,-0.8053,-0.8061,-0.8004,-0.8004,-0.8005,0,-0.7895,-0.7909,-0.7912,-0.7919,-0.7922,-0.7934,-0.794,-0.7934,-0.7941,-0.7948,-0.7959,-0.7971,-0.798,-0.8003,-0.8002,-0.8013,-0.8008,-0.803,-0.8009,-0.8011,-0.8007,-0.8006,-0.8007,-0.8034,-0.8034,-0.8035,-0.8035,0,-0.7942,-0.7939,-0.7949,-0.7959,-0.7968,-0.7975,-0.7981,-0.7988,-0.7982,-0.7992,-0.8005,-0.8012,-0.8028,-0.804,-0.805,-0.8053,-0.8043,-0.8042,-0.8047,-0.8048,-0.8049,-0.8048,-0.7982,-0.804,-0.804,-0.8039,-0.8039,-0.8039,-0.7976,-0.7987,-0.7992,-0.8004,-0.8008,-0.8015,-0.8026,-0.8026,-0.8037,-0.8049,-0.8045,-0.8061,-0.8066,-0.808,-0.8084,-0.8096,-0.8088,-0.8095,-0.8096,-0.8098,-0.81,-0.8049,-0.8098,-0.8098,-0.8098,-0.8098,-0.8098,0,-0.8021,-0.8024,-0.8035,-0.8044,-0.8054,-0.8046,-0.8053,-0.8062,-0.8076,-0.8082,-0.8092,-0.8108,-0.8121,-0.8122,-0.8134,-0.8144,-0.814,-0.8148,-0.8146,-0.8147,-0.8107,-0.8101,-0.8151,-0.8151,-0.8151,-0.8151,-0.8151,-0.8151,-0.8045,-0.8065,-0.8064,-0.8086,-0.8089,-0.8104,-0.8109,-0.8116,-0.8121,-0.8139,-0.815,-0.8151,-0.8156,-0.8168,-0.818,-0.818,-0.8185,-0.8194,-0.8192,-0.8155,-0.8149,-0.8144,-0.8139,-0.8195,-0.8195,-0.8231,-0.8231,-0.8231]},{"header":{"parameterUnit":"m.s-1","parameterCategory":1,"la1":30.2991,"la2":30.254,"lo1":-89.0895,"lo2":-89.0444,"dy":0.0017,"dx":0.0017,"nx":28,"ny":28,"refTime":"2024-02-16T03:00:00:Z","depth":0,"parameterNumber":3,"parameterNumberName":"V-component_of_WINDS"},"data":[0,0,0,0,0,0,0,0,0,0,0,0,0,0,0,0,0,0,0,0,0,0,0,0,0,0,0,0,0,0,0,0,0,0,0,0,0,0,0,0,0,0,0,0,0,0,0,0,0,0,0,0,0,0,0,0,0,0,2.903,2.903,0,2.9051,2.9051,2.9051,2.9076,2.9077,2.9077,2.9078,2.9096,2.9096,2.9096,0,0,0,0,0,0,0,0,0,0,0,0,0,2.9008,2.9009,2.903,2.903,2.903,2.905,2.9051,2.9051,2.9076,2.9077,2.9077,2.9078,2.9096,2.9096,2.9096,0,0,0,0,0,0,0,0,0,0,0,0,0,2.9022,2.9009,2.903,2.9045,2.9047,2.905,2.9051,2.9051,2.9076,2.9077,2.9078,2.9078,2.9096,2.9096,2.9096,2.9085,0,0,2.9097,2.9097,0,0,0,0,0,0,0,0,2.9021,2.9023,2.9043,2.9044,2.9046,2.9062,2.905,2.9062,2.9076,2.9065,2.9078,2.9078,2.9084,2.9085,2.9088,2.9086,2.9087,2.9097,2.9097,2.9097,2.9097,0,0,0,0,0,0,0,2.902,2.9022,2.9038,2.9043,2.9045,2.905,2.9053,2.9052,2.9071,2.9066,2.9068,2.907,2.9085,2.9087,2.9088,2.9087,2.9097,2.9097,2.9097,2.9097,2.9074,2.9074,0,0,0,0,0,0,2.9017,2.9021,2.9037,2.9039,2.9035,2.905,2.9053,2.9056,2.9071,2.9074,2.907,2.9071,2.9087,2.9088,2.9089,2.9075,2.9097,2.9097,2.9097,2.9075,2.9074,2.9074,0,0,0,0,0,0,2.9017,2.9019,2.9036,2.903,2.9033,2.905,2.9053,2.9056,2.9059,2.9074,2.9077,2.9069,2.9087,2.9089,2.9085,2.9076,2.9097,2.9097,2.9076,2.9075,2.9074,2.9048,0,0,0,0,0,0,2.9016,2.9018,2.9015,2.903,2.9033,2.9034,2.9052,2.9056,2.9059,2.9061,2.9074,2.9076,2.9088,2.9085,2.9086,2.9077,2.9098,2.9077,2.9075,2.9074,2.9049,2.9046,2.9043,0,0,0,0,0,2.9015,2.9007,2.9015,2.9017,2.903,2.9033,2.9035,2.9049,2.9058,2.9054,2.9064,2.9076,2.9077,2.9085,2.9085,2.9076,2.9077,2.9076,2.9074,2.9051,2.9047,2.9043,0,0,0,0,0,0,2.899,2.9009,2.9018,2.9015,2.9022,2.9037,2.9033,2.9044,2.9049,2.905,2.9067,2.907,2.9064,2.907,2.9078,2.9065,2.9079,2.9077,2.9061,2.9057,2.9054,2.9051,2.9098,0,0,0,0,0,2.8984,2.8986,2.9003,2.8998,2.9001,2.9016,2.9018,2.9029,2.9037,2.904,2.9049,2.9055,2.9057,2.9057,2.906,2.9051,2.9052,2.9045,2.9041,2.9039,2.9036,2.903,2.9026,2.9068,2.9068,2.9068,0,0,2.8972,2.8983,2.8983,2.8993,2.9,2.9,2.9019,2.9019,2.9019,2.9039,2.9036,2.9043,2.9051,2.9044,2.9042,2.9049,2.9025,2.9037,2.9034,2.9034,2.9028,2.9024,2.902,2.9067,2.9067,2.9068,0,0,2.8949,2.8958,2.8954,2.8961,2.8971,2.8981,2.898,2.8993,2.8999,2.8996,2.9011,2.9011,2.9014,2.9018,2.9021,2.8998,2.9008,2.8998,2.898,2.8973,2.897,2.8967,2.8956,2.8953,2.8996,2.8996,2.8996,0,2.8932,2.8934,2.8951,2.8949,2.8952,2.8971,2.8966,2.8971,2.8982,2.8982,2.8991,2.8994,2.9001,2.8994,2.8988,2.8991,2.8988,2.8996,2.8969,2.8966,2.8964,2.8954,2.895,2.8995,2.8995,2.8995,2.8995,0,2.8912,2.8913,2.8908,2.8917,2.892,2.8917,2.8931,2.8932,2.8941,2.895,2.8946,2.8955,2.8958,2.8958,2.8967,2.8952,2.8956,2.8967,2.8981,2.8958,2.8949,2.8946,2.8993,2.8993,2.8994,2.8994,0,0,2.8874,2.8892,2.8889,2.8893,2.8905,2.8905,2.8902,2.8906,2.8905,2.8911,2.8907,2.8909,2.8918,2.8921,2.8931,2.8925,2.8904,2.8937,2.8937,2.8928,2.8884,2.8874,2.887,2.8911,2.8911,2.891,2.8883,0,2.8852,2.8848,2.8862,2.8854,2.8853,2.8871,2.8868,2.8874,2.8881,2.8881,2.8889,2.8889,2.8903,2.8905,2.89,2.8907,2.8895,2.891,2.8906,2.8905,2.8901,2.8866,2.8856,2.883,2.888,2.8879,2.8879,0,2.8826,2.883,2.8822,2.8833,2.8833,2.883,2.8834,2.8834,2.8841,2.8846,2.8849,2.886,2.8856,2.887,2.8863,2.8873,2.8872,2.8876,2.8875,2.8874,2.8889,2.8861,2.8822,2.8817,2.8874,2.8874,2.8874,0,2.8796,2.8801,2.8796,2.8798,2.8811,2.8808,2.8813,2.882,2.8821,2.8824,2.8824,2.8826,2.8827,2.8828,2.8839,2.8849,2.8829,2.8845,2.8832,2.8831,2.8826,2.8826,2.8783,2.8828,2.8828,2.8828,2.8829,0,2.877,2.8763,2.8782,2.8779,2.8772,2.8787,2.8779,2.8786,2.8792,2.8789,2.8804,2.8801,2.8816,2.8814,2.8823,2.8814,2.8815,2.8818,2.8819,2.8815,2.8814,2.8813,2.8815,2.8827,2.8828,2.8828,2.8828,0,2.8735,2.8748,2.8743,2.8755,2.8758,2.8752,2.8762,2.8758,2.8767,2.8762,2.8762,2.8775,2.8773,2.8784,2.8784,2.879,2.8776,2.8782,2.8774,2.8775,2.876,2.876,2.8714,2.8707,2.8758,2.8758,2.8757,0,2.8716,2.8712,2.8723,2.8723,2.8727,2.8726,2.8727,2.8741,2.8741,2.8747,2.8742,2.8741,2.8741,2.8737,2.8745,2.8744,2.8749,2.8733,2.8749,2.8744,2.8746,2.8745,2.8744,2.8729,2.8728,2.8728,2.8727,0,2.8681,2.8687,2.8688,2.869,2.8691,2.8693,2.8696,2.8695,2.871,2.8709,2.8707,2.8707,2.8707,2.8705,2.8705,2.8709,2.8719,2.8722,2.8719,2.8713,2.8708,2.8708,2.8762,2.8723,2.8723,2.8724,2.8724,2.8724,2.8652,2.8648,2.8655,2.8655,2.8659,2.8661,2.8658,2.8665,2.8664,2.8665,2.8674,2.867,2.8674,2.8676,2.8679,2.8674,2.8682,2.8677,2.8676,2.8674,2.867,2.871,2.8675,2.8675,2.8675,2.8675,2.8675,0,2.8616,2.8621,2.862,2.8624,2.8623,2.8635,2.8639,2.8637,2.8633,2.8637,2.8636,2.8633,2.8631,2.8638,2.8637,2.8632,2.8636,2.863,2.863,2.863,2.8665,2.8667,2.8627,2.8627,2.8627,2.8627,2.8627,2.8627,2.8596,2.8589,2.8596,2.859,2.8595,2.8591,2.8592,2.8593,2.8596,2.8592,2.859,2.8595,2.86,2.8598,2.8596,2.8598,2.8596,2.8588,2.8591,2.8623,2.8628,2.8632,2.8634,2.8588,2.8588,2.8557,2.8556,2.8556]}]]